ELEKTRO-L 2

Last updated on Fri Dec 19 2025 00:02:25 GMT+0000 (Coordinated Universal Time)

1 41105U 15074A 25352.05170244 -.00000097 00000+0 00000+0 0 9993 2 41105 6.2385 72.7657 0003578 208.6234 169.6590 1.00272597 36692
UTC large
Height (km)
Speed (km/s)
/
Latitude / Longitude
Inclination (degrees)
Orbital Period (minutes)
Azimuth
Elevation
Range (km)
Doppler Factor

Next 0 passes for location: London (51.5072 / 0.1276)

Sorry there are no passes over London.